Theta_e
336 340 348 348 348 347 346 347 346 345 343 340 341 342 345 344 343 342 341 339 338 336 335 335 335 338 339 337 337 337 335 336 335 336 336 337 337 337 336 335 334 331 336
338 343 343 347 347 348 347 346 345 344 342 338 338 341 344 344 343 342 340 341 338 336 335 334 334 336 336 333 334 334 335 334 335 335 335 337 336 335 336 336 336 335 339
339 342 343 345 347 348 346 345 343 344 342 339 338 342 343 344 344 343 341 342 338 336 335 334 334 333 332 331 331 332 332 332 331 330 332 326 328 335 335 334 335 337 337
339 340 341 342 346 346 344 343 343 342 341 340 339 342 344 344 345 343 341 341 339 336 334 334 334 333 333 332 331 330 330 331 331 328 327 328 330 335 334 334 334 334 335
339 340 340 343 346 345 345 344 343 343 341 339 340 344 345 344 345 343 342 341 339 336 333 333 333 333 334 333 331 330 330 330 329 322 321 323 324 331 333 332 332 333 335
336 340 339 343 346 345 345 344 342 341 341 340 340 342 343 344 343 342 342 341 340 336 334 332 333 333 333 332 331 329 327 326 322 313 319 328 325 331 331 331 332 333 335
336 338 339 341 342 345 344 343 342 341 340 340 341 344 343 342 342 340 339 339 338 335 333 332 331 331 330 328 326 324 324 324 315 311 317 321 325 331 331 330 330 331 333
334 337 340 336 338 341 343 343 343 342 341 341 342 344 343 342 342 340 338 338 336 334 333 331 331 330 329 327 324 323 324 324 318 312 315 317 327 329 330 330 330 330 331
327 330 337 339 336 334 337 339 340 341 341 341 342 342 340 340 340 340 338 337 335 333 331 332 331 329 328 326 325 325 325 324 316 315 315 317 329 327 329 330 330 330 330
309 316 332 336 338 337 334 331 334 337 337 338 336 335 334 334 334 335 332 334 335 334 332 331 330 328 327 327 327 326 323 323 316 315 315 316 327 325 327 330 330 330 331
307 307 313 333 335 336 335 332 329 331 332 333 332 329 327 332 332 329 328 331 334 333 333 331 330 328 329 328 327 325 323 316 315 316 315 321 328 328 329 330 330 331 331
304 305 309 317 325 335 336 334 331 332 333 333 332 330 330 328 328 328 324 327 330 329 331 332 331 329 325 319 317 319 317 316 315 315 315 325 329 329 328 330 331 331 333
304 306 308 309 314 323 333 332 331 331 331 332 331 330 329 328 324 324 322 324 324 321 324 327 324 321 319 317 316 315 315 315 315 314 317 325 329 329 329 330 331 332 333
302 304 307 308 310 313 322 331 329 330 332 331 331 330 328 325 322 321 322 321 320 320 318 318 317 318 317 318 316 315 316 315 315 316 317 321 328 330 331 331 332 333 333
301 303 304 307 308 310 313 321 330 329 331 331 331 331 330 325 323 322 321 320 319 318 317 315 315 316 317 318 315 314 315 316 316 317 317 317 324 330 332 333 333 334 334
301 301 302 304 307 309 310 313 321 329 331 331 330 331 330 327 323 322 321 320 318 317 317 316 315 316 316 316 316 315 314 315 316 317 318 318 321 327 331 333 333 334 334
300 301 301 302 304 305 307 309 313 325 330 331 330 331 331 328 324 323 321 320 319 318 317 316 316 315 315 315 314 314 314 315 316 317 317 317 319 320 325 331 333 333 333
299 300 302 303 302 303 305 307 311 315 328 330 331 330 331 330 326 323 320 318 319 318 317 315 315 314 314 313 312 312 313 315 316 316 317 317 318 320 321 326 331 332 332
298 300 301 302 302 302 303 304 307 311 320 328 329 329 330 330 327 323 321 320 319 318 316 316 315 314 313 313 313 313 313 313 313 316 316 317 317 318 319 321 323 324 329
298 299 300 301 302 303 302 303 306 309 313 327 326 327 328 328 328 325 323 321 320 318 317 315 315 314 313 313 315 314 313 313 313 313 314 316 317 321 322 322 318 317 321
297 297 297 297 299 301 302 300 302 304 311 324 326 326 327 328 328 327 325 322 320 319 318 317 315 314 312 312 310 310 311 313 313 312 313 314 317 322 322 320 320 321 321
295 295 295 296 298 300 303 303 302 306 314 321 327 327 326 327 328 327 326 324 322 320 318 317 316 313 314 314 310 309 308 308 312 310 311 315 314 315 312 317 315 314 314
294 294 294 294 297 301 306 305 303 306 308 316 324 325 325 325 327 327 326 325 324 322 319 318 317 316 314 313 314 311 304 303 308 309 307 306 305 304 304 305 306 306 306
294 295 293 295 299 304 310 304 301 303 307 316 323 325 325 326 326 327 327 326 325 323 321 319 319 318 317 314 314 316 314 311 309 304 305 304 303 300 299 300 301 302 303
294 293 293 297 299 307 305 302 302 304 309 318 320 319 315 315 316 319 324 324 324 324 322 321 320 319 318 317 316 314 314 312 313 310 300 298 298 298 298 297 298 298 299
294 293 292 296 297 301 307 305 305 306 311 313 312 311 311 311 312 312 313 313 313 312 311 311 311 313 319 318 315 313 314 312 311 311 301 297 293 295 296 296 296 296 296
Wind_Speed
3 5 8 8 12 11 8 8 8 10 10 9 10 10 10 12 14 14 14 14 12 11 11 10 8 9 12 11 11 13 14 13 14 13 11 10 11 11 12 11 7 5 10
5 5 9 8 7 10 10 8 8 9 9 9 9 9 9 13 13 15 15 14 13 12 11 10 10 9 9 10 10 12 12 11 10 11 8 8 10 11 10 9 7 7 8
5 6 7 9 6 7 7 6 8 8 7 7 7 8 8 10 17 15 14 14 12 10 10 9 9 9 9 8 9 9 9 7 4 0 2 3 3 9 7 7 8 9 9
3 6 6 9 9 7 6 4 7 7 6 5 5 7 9 15 18 16 14 13 12 9 9 8 9 8 8 7 7 6 6 6 6 6 4 3 1 7 7 6 7 7 7
5 5 6 12 10 8 7 7 6 6 6 5 4 6 17 16 17 17 15 13 12 10 9 8 8 9 7 6 4 4 5 7 9 4 3 4 3 5 6 5 6 6 6
7 6 5 11 13 10 8 7 6 5 5 6 5 5 12 13 14 13 13 12 11 12 10 9 8 6 5 4 3 3 5 7 8 5 1 4 3 5 5 4 5 5 6
8 4 7 10 13 14 11 9 7 6 7 7 7 7 9 12 14 13 12 11 11 11 11 10 9 5 5 4 2 2 4 5 4 3 1 3 2 4 4 3 4 4 4
9 7 4 7 6 10 12 10 8 7 7 7 8 7 10 13 14 14 14 11 10 10 10 10 8 6 5 4 2 1 4 5 3 3 2 2 4 3 2 2 2 2 3
10 10 7 5 6 7 8 10 10 9 9 8 7 9 10 10 12 11 13 12 12 10 8 8 8 7 6 4 3 3 4 6 3 2 3 3 5 4 2 2 1 1 2
8 9 10 7 4 5 4 8 10 10 10 9 7 9 10 8 9 10 9 10 11 10 10 8 7 7 7 5 5 5 6 7 3 3 3 3 6 4 4 3 2 1 2
10 9 10 8 5 6 6 7 9 10 10 10 8 9 9 6 7 8 7 10 10 10 9 10 9 9 7 6 7 8 7 3 4 3 3 8 8 5 5 5 5 4 5
16 15 8 11 12 6 7 7 7 6 6 7 7 8 6 6 5 6 7 9 10 10 10 10 10 8 7 3 3 6 3 4 4 3 3 9 9 7 6 6 5 5 7
11 10 12 9 10 10 7 4 3 4 4 5 9 8 7 5 4 4 3 4 4 7 4 5 5 4 5 3 4 4 4 4 3 3 4 10 10 8 7 7 7 7 8
11 11 14 12 9 9 8 6 6 6 6 6 7 10 7 4 5 4 4 4 5 4 5 4 3 4 5 6 5 5 5 4 3 3 4 8 10 10 9 8 8 8 8
17 15 14 14 10 9 8 7 6 6 7 8 8 9 8 7 7 6 5 5 5 4 4 4 4 4 5 5 5 6 5 5 5 3 3 8 10 11 10 10 10 9 9
17 17 17 15 14 11 9 10 9 7 8 7 8 9 11 9 8 7 7 7 5 5 5 5 5 5 5 4 5 6 6 5 5 5 4 4 10 11 12 12 11 11 11
15 16 15 18 15 16 13 10 8 7 8 7 8 11 12 11 11 11 8 8 8 7 6 4 4 3 4 4 6 5 5 6 5 6 5 4 4 10 11 13 12 12 12
18 17 17 14 16 15 15 10 7 8 7 8 7 9 13 13 13 11 8 7 7 6 6 5 4 4 4 4 3 4 4 4 6 6 5 4 4 4 7 12 12 12 12
18 19 17 17 16 16 15 12 11 10 9 9 8 7 10 12 12 10 8 7 7 6 6 6 5 4 4 4 4 4 4 4 5 4 6 6 6 5 4 7 10 9 10
18 19 18 16 19 17 12 10 9 8 9 8 7 8 9 8 12 11 8 8 7 6 6 4 5 4 3 4 4 4 4 4 4 4 6 4 5 6 5 4 4 3 7
20 21 20 19 19 14 11 8 8 9 7 8 8 11 10 8 9 10 9 9 8 8 9 8 4 6 4 3 2 2 3 5 3 4 3 3 4 4 1 4 2 2 3
24 23 21 21 19 15 11 8 8 5 6 6 6 11 11 10 10 11 11 10 11 8 7 8 7 4 4 5 4 2 4 1 5 6 5 6 8 7 8 7 8 7 7
25 25 22 21 21 20 17 9 7 7 6 7 6 7 9 11 11 13 11 9 10 10 9 10 10 10 7 4 7 4 2 4 2 4 8 7 10 8 9 10 10 10 10
22 20 23 23 23 19 5 7 6 6 5 4 5 5 8 8 10 9 12 12 11 8 9 10 9 9 7 7 3 7 4 4 4 3 5 7 9 10 11 9 9 9 11
22 21 21 20 20 17 5 6 4 5 6 4 1 4 9 10 10 7 4 2 3 5 7 5 6 9 7 8 6 3 8 5 5 4 3 4 8 8 8 9 9 9 12
22 22 19 20 21 22 10 1 4 5 4 7 6 7 10 8 8 10 9 10 9 8 9 8 9 9 7 3 2 1 2 5 7 5 4 5 8 6 6 8 8 7 8
Wind_Direction
258 180 158 161 146 148 149 148 143 128 125 127 135 135 131 138 128 122 117 113 108 107 104 99 98 88 81 91 94 94 91 88 85 86 87 86 85 82 83 83 81 69 70
236 175 156 145 152 158 162 164 151 133 132 136 148 150 147 146 139 132 128 120 117 118 105 104 104 101 95 92 93 95 94 91 90 91 67 79 89 86 82 80 65 69 51
268 165 152 143 144 137 150 168 147 141 142 149 161 170 177 186 156 137 132 125 124 114 116 105 111 110 103 93 91 98 96 89 73 299 117 97 90 90 85 79 65 49 44
241 189 158 145 143 148 154 150 144 141 151 159 188 210 188 159 142 138 137 135 127 124 118 117 125 123 113 103 98 90 82 65 39 47 176 174 94 82 72 64 60 54 46
276 211 166 148 150 161 172 166 159 155 160 166 203 249 171 160 143 144 143 147 138 130 135 128 127 142 136 121 94 57 34 31 24 66 104 124 82 80 73 64 51 49 25
329 209 216 171 156 162 176 186 176 175 201 186 202 225 173 166 149 147 145 149 142 145 145 141 130 129 130 124 95 39 15 27 26 48 90 114 91 90 77 67 55 38 8
342 306 192 205 172 167 171 187 192 197 220 217 213 221 191 169 150 149 147 152 151 158 152 147 149 151 141 129 101 29 355 14 33 12 220 133 129 94 86 75 62 41 19
341 342 239 210 202 183 171 180 192 200 215 223 225 206 185 164 156 163 149 154 159 164 166 162 155 176 174 167 164 321 328 339 0 352 207 212 194 141 108 90 66 40 15
348 344 323 229 205 214 198 186 194 207 209 223 216 189 170 169 164 169 154 158 165 171 178 178 170 197 200 201 214 253 285 303 328 308 291 222 207 175 181 158 117 45 14
349 344 333 320 246 205 218 218 197 203 210 208 211 171 155 169 161 166 164 161 165 161 176 177 199 214 221 228 247 262 278 297 293 280 269 222 212 197 200 213 207 226 254
348 343 341 324 297 247 206 227 225 212 207 202 196 173 165 173 170 174 167 169 169 166 175 183 209 221 231 250 271 281 286 288 285 263 254 223 210 211 212 220 223 229 247
342 335 340 344 336 290 242 221 219 227 207 190 186 184 185 180 177 178 175 178 183 180 177 192 219 229 239 247 279 297 273 276 282 272 252 227 215 219 219 229 232 240 256
324 328 330 328 331 330 300 263 228 218 214 195 184 183 193 185 178 175 175 186 178 183 188 199 217 226 237 235 254 260 261 249 257 263 261 225 232 232 232 230 233 239 254
329 320 322 322 323 323 309 289 242 223 208 206 199 187 183 181 181 185 186 187 181 182 191 200 210 229 240 245 239 244 244 236 241 240 250 224 228 235 236 233 232 237 251
332 328 323 310 320 312 312 297 265 248 223 208 202 194 185 183 188 183 188 179 202 179 191 200 213 224 234 241 245 237 243 243 249 246 242 235 226 233 238 238 234 235 243
327 322 321 313 308 304 307 306 299 259 245 211 205 200 192 185 182 185 188 195 201 193 195 194 200 214 225 228 242 243 248 252 254 256 245 242 235 233 237 242 240 238 241
319 314 313 311 311 309 298 289 291 287 252 228 209 202 197 186 189 184 190 196 202 194 192 196 214 221 229 230 240 247 245 246 245 246 241 234 243 237 238 242 243 241 244
325 319 312 305 302 298 297 288 279 281 250 247 222 205 202 194 190 190 189 199 199 184 190 180 190 213 223 216 232 248 251 252 249 246 245 242 235 237 233 237 237 245 245
326 319 317 310 300 290 284 285 280 269 267 224 233 207 208 201 194 187 192 197 187 191 189 190 195 181 192 223 237 248 252 256 257 266 249 243 234 229 228 238 228 232 240
331 321 320 314 303 293 280 278 275 264 258 236 218 211 196 199 202 183 196 191 190 195 196 186 194 187 180 202 224 237 248 248 251 239 245 261 251 236 200 208 187 223 236
335 329 324 314 305 296 281 263 269 256 250 236 209 218 206 193 201 202 194 191 189 201 200 198 176 194 215 188 142 282 280 249 300 332 312 294 314 6 53 125 83 59 17
336 335 324 314 304 289 270 250 238 253 259 234 215 212 215 203 205 208 206 197 191 197 199 193 189 190 209 175 174 131 266 353 71 41 28 50 41 44 35 55 75 59 55
343 333 328 316 308 299 265 238 238 267 270 259 212 208 210 210 211 209 198 199 203 200 204 201 200 203 213 196 199 164 135 225 126 28 43 49 52 47 45 41 48 60 64
345 334 330 321 317 306 232 200 209 246 275 240 233 200 220 221 223 233 221 208 206 200 209 206 201 208 194 212 175 226 227 154 174 153 53 55 62 58 53 52 40 55 57
350 346 334 336 341 338 134 173 197 232 266 272 60 112 78 60 45 14 201 154 240 234 222 214 221 212 198 212 207 164 221 217 210 153 135 110 59 57 63 60 54 54 59
352 354 341 354 4 13 22 227 231 244 311 84 82 80 74 59 57 50 33 68 84 65 53 31 56 28 238 200 106 9 257 208 206 174 120 112 101 52 51 65 66 62 64